[Date Prev][Date Next][Thread Prev][Thread Next] - [Date Index][Thread Index][Author Index]
2 Line ISS Keps 10-4
- Subject: [sarex] 2 Line ISS Keps 10-4
- From: "Scott Avery WA6LIE" <wa6lie@xxxxxxx>
- Date: Mon, 4 Oct 2004 04:57:04 -0700
- Seal-Send-Time: Mon, 4 Oct 2004 04:57:04 -0700
ISS
1 25544U 98067A 04278.45719058 .00015151 00000-0 13476-3 0 8345
2 25544 51.6349 128.1143 0009694 183.9312 240.5993 15.68687969335485
----
Via the sarex mailing list at AMSAT.ORG courtesy of AMSAT-NA.
To unsubscribe, send "unsubscribe sarex" to Majordomo@amsat.org
AMSAT Home